Location: Crescent
(42.8242°N, 73.7329°W)
Time: 08:47:20
(UTC+00:00)

Vanguard 1 - Pass Details

Date: 20 February 2026
Orbit: 653 x 3818 km, 34.2° (Epoch: 12 March)

Event Time Altitude Azimuth Distance (km) Brightness Sun altitude
Rises 22:37:43 0° 266° (W) 5,234 16.2 -1.7°
Reaches altitude 10° 22:40:35 10° 263° (W) 4,568 15.6 -2.2°
Maximum altitude 22:54:15 62° 187° (S) 3,302 12.8 -4.6°
Drops below altitude 10° 23:16:07 10° 115° (ESE) 6,899 13.8 -8.6°
Enters shadow 23:21:33 - 112° (ESE) 7,915 14.1 -9.6°
Sets 23:21:43 0° 112° (ESE) 7,945 - -9.6°
